Location: Limerick
(52.6650°N, 8.6230°W)
Time: 15:37:39
(UTC+00:00)

ISS - Pass Details

Date: 22 January 2020
Orbit: 415 x 421 km, 51.6° (Epoch: 18 January)

Event Time Altitude Azimuth Distance (km) Brightness Sun altitude
Rises 18:56:41 0° 210° (SSW) 2,355 0.7 -17.1°
Reaches altitude 10° 18:59:12 10° 191° (S) 1,494 -0.7 -17.5°
Enters shadow 19:01:13 18° 154° (SSE) 1,097 -1.8 -17.8°
